Temperature
14 14 14 13 12 12 11 10 10 10 10 10 10 10 10 10 10 11 11 11 12 11 12 12 12 13 13 13 13 13 13 13 14 14 14 14 14 15 15 15 15 15 14 14
15 14 14 13 13 12 11 11 11 11 11 11 11 11 11 11 11 12 12 12 12 12 12 12 12 12 13 13 13 12 12 12 13 13 13 13 13 14 14 14 14 14 14 14
16 15 15 15 13 12 11 11 11 11 11 12 13 12 12 12 12 12 12 12 12 12 12 12 12 12 12 12 12 12 12 12 12 12 12 13 13 13 14 14 14 14 14 13
17 16 16 15 14 13 12 12 12 12 12 13 13 13 13 12 12 12 12 13 12 12 12 12 12 12 12 12 12 12 12 12 12 12 12 12 13 13 13 13 13 13 13 12
17 16 16 15 14 14 14 14 13 13 13 13 14 16 15 13 12 12 12 13 13 13 13 13 12 13 13 13 12 12 11 11 11 11 12 12 12 12 12 12 11 11 12 12
17 17 17 16 15 13 14 15 14 14 14 14 15 17 15 13 12 13 13 13 13 13 13 13 13 13 13 13 12 11 11 11 11 11 11 11 11 11 11 11 11 11 11 11
17 17 17 15 13 13 15 16 14 13 13 13 14 14 13 12 12 13 13 14 14 14 14 14 13 14 14 13 12 12 11 11 11 11 11 11 11 11 11 11 11 11 11 11
17 17 16 13 13 15 16 14 13 13 13 12 12 12 13 13 13 13 14 14 14 14 14 14 14 14 14 13 13 12 12 11 11 11 11 11 11 11 11 11 11 11 11 11
17 17 14 13 14 13 12 13 13 13 12 12 12 12 12 13 13 13 14 14 15 15 14 14 14 14 14 13 13 13 12 11 11 11 11 11 11 11 11 11 10 10 10 10
15 15 14 13 13 12 12 12 12 12 12 12 12 12 12 13 13 13 13 14 15 15 15 15 15 14 14 14 14 13 12 12 11 11 11 11 11 11 11 10 10 10 10 10
15 16 14 13 13 13 12 12 12 12 12 12 12 12 12 13 13 13 13 14 14 15 15 15 15 15 15 15 15 13 12 12 12 11 11 11 11 11 10 10 10 10 10 10
17 16 16 15 14 13 12 12 12 12 12 12 12 12 12 12 12 13 13 13 14 14 15 15 15 15 15 15 15 14 13 12 12 11 11 11 10 10 10 10 10 10 10 9
15 14 15 14 14 13 13 13 12 12 12 12 12 12 12 12 12 12 13 13 14 15 15 15 15 15 15 15 15 14 13 12 12 11 11 10 10 10 10 9 9 9 9 9
13 13 14 14 13 13 13 12 12 12 12 12 12 12 12 12 12 12 13 13 14 14 14 15 15 15 15 15 15 15 13 12 12 11 11 10 10 10 9 9 9 9 9 9
13 13 15 14 13 13 12 12 12 12 12 12 12 12 12 12 12 12 13 14 14 14 14 15 15 15 15 16 15 15 13 12 12 11 11 10 10 10 10 10 9 9 9 9
13 13 13 14 13 13 13 12 13 13 12 12 12 12 12 12 12 12 13 14 14 14 15 15 15 15 16 16 16 15 14 13 12 11 11 11 10 10 10 10 9 9 9 8
14 13 13 14 14 13 13 13 13 13 12 12 12 12 12 12 12 12 13 13 14 14 14 14 15 15 16 16 16 15 14 13 12 11 11 11 10 10 10 10 9 9 8 8
15 15 14 14 14 14 13 13 13 12 12 12 12 12 12 12 12 12 12 13 12 12 12 14 15 15 15 16 15 14 13 12 12 11 11 11 10 10 10 10 9 9 8 8
15 14 14 14 14 14 13 13 13 12 12 12 11 11 11 11 11 12 12 12 12 12 13 14 15 15 15 15 15 14 13 12 12 11 11 11 11 10 10 10 9 9 9 8
15 14 14 14 14 14 13 13 12 12 12 11 11 11 11 11 11 12 12 12 11 12 13 14 15 15 15 15 15 14 13 12 12 11 11 11 11 11 10 10 10 9 9 9
15 15 15 14 14 14 13 13 12 12 12 12 11 11 11 11 12 12 12 12 11 12 13 14 14 15 15 15 14 14 13 13 12 12 11 11 11 11 10 10 10 10 9 9
15 14 14 14 14 13 13 13 12 12 12 12 12 11 11 12 12 12 12 12 12 12 12 13 14 14 15 15 15 14 13 13 12 12 11 11 11 11 11 10 10 10 9 9
14 14 14 14 13 13 13 13 12 12 12 12 12 12 12 12 12 12 12 11 11 12 12 12 13 14 14 15 14 14 14 13 13 12 12 11 11 11 11 11 10 10 9 9
14 14 14 14 13 13 13 13 13 12 12 12 12 12 12 12 12 12 12 12 12 12 12 12 12 13 13 13 14 14 14 13 13 12 12 12 11 11 11 11 10 10 9 9
13 14 14 14 13 13 13 13 13 12 12 11 11 12 12 12 12 12 12 13 13 13 12 12 12 12 12 12 13 13 13 13 13 13 12 12 12 11 11 11 10 10 9 9
13 13 13 14 14 13 13 13 13 13 12 12 12 12 12 12 12 12 12 12 13 13 13 13 12 12 12 12 12 12 13 13 13 13 13 12 12 12 12 11 11 10 9 9
12 12 13 13 13 13 13 13 13 13 12 12 12 12 12 12 12 12 12 12 12 12 13 13 12 12 12 12 12 12 12 13 13 13 13 13 13 12 12 11 11 10 10 9
Wind_Speed
8 3 7 11 12 12 11 8 6 8 9 12 17 17 16 15 14 14 14 13 13 13 13 13 14 14 13 13 11 8 6 4 3 2 2 3 3 4 4 4 4 3 2 1
4 2 1 7 11 10 9 7 7 7 6 10 14 12 13 13 12 13 13 13 13 13 14 14 13 13 13 14 12 11 10 10 8 7 7 6 6 5 6 7 6 5 4 4
3 3 5 4 6 6 5 6 4 4 6 13 13 12 12 11 11 11 12 13 13 13 13 12 11 12 13 12 12 13 13 13 12 11 11 10 9 9 9 9 9 8 7 7
2 5 2 4 2 1 0 2 3 6 9 11 10 6 9 11 11 11 11 11 11 11 11 11 10 10 10 11 12 13 13 13 12 11 11 10 11 11 11 10 10 9 9 9
1 2 4 4 4 3 1 2 1 5 8 11 11 5 12 15 13 10 9 9 9 9 9 9 9 9 10 11 11 11 11 10 10 10 10 11 11 11 10 9 9 9 9 10
2 2 2 5 7 3 3 3 2 3 7 10 11 8 10 15 13 11 9 9 9 8 7 8 7 7 9 9 10 9 9 9 9 9 9 9 9 9 8 7 7 7 9 9
3 2 2 6 6 5 2 4 3 3 6 8 7 7 10 11 10 9 8 8 8 7 7 6 6 7 10 10 9 8 8 9 9 9 9 8 8 8 8 7 7 6 7 7
3 4 3 8 7 5 2 3 1 2 5 6 7 8 9 10 10 11 10 9 8 8 7 6 6 7 9 9 6 5 5 6 7 6 6 6 7 7 8 7 6 5 5 5
4 1 4 8 6 2 1 1 1 3 5 5 6 8 10 10 10 10 9 9 8 8 8 7 6 6 7 6 4 4 5 5 4 4 5 5 6 6 6 6 5 5 5 4
6 7 7 8 8 6 5 3 2 4 4 4 6 8 9 9 9 9 9 9 8 9 9 8 7 6 5 4 3 3 4 4 4 4 4 4 4 4 5 5 6 6 6 6
6 5 7 11 11 9 7 5 3 2 2 4 6 7 9 9 9 9 9 9 8 8 9 10 9 7 5 4 3 3 3 3 3 3 3 4 4 4 4 5 6 6 6 6
4 7 8 9 14 12 10 7 5 2 1 2 4 7 9 9 9 9 9 9 9 9 9 10 9 7 6 5 3 3 2 2 2 3 3 4 3 3 2 1 3 5 7 7
0 4 6 3 11 13 11 8 6 4 3 4 4 6 8 8 8 8 9 9 10 10 10 10 10 8 7 6 4 3 2 0 1 2 4 4 3 2 3 4 4 0 5 8
5 5 7 7 10 12 10 8 6 5 4 4 4 6 7 8 9 9 10 10 10 9 9 10 10 9 9 8 5 3 2 2 1 2 3 4 4 4 4 4 4 3 6 9
11 9 7 8 10 11 9 9 7 6 4 3 3 5 6 8 9 10 10 10 9 9 9 10 10 10 10 8 5 2 3 3 3 2 2 3 3 4 5 5 5 4 4 5
14 10 8 10 12 12 11 10 8 6 4 3 3 4 5 7 7 8 9 9 9 9 9 10 11 11 11 8 3 2 3 3 3 3 2 2 2 3 4 5 4 4 5 6
17 17 15 14 13 13 12 11 8 6 4 4 3 4 5 6 7 8 8 9 8 7 7 9 10 11 10 6 1 3 4 5 5 3 2 2 2 3 4 4 4 4 5 5
18 17 16 15 13 13 12 11 9 7 5 3 3 4 5 6 7 8 9 10 9 7 7 9 11 11 8 6 1 3 4 4 4 3 2 2 2 2 2 3 3 3 3 3
15 14 14 14 12 12 12 11 10 8 6 4 4 5 5 6 6 7 8 9 8 8 10 11 12 9 7 5 2 2 3 4 4 3 3 3 2 1 1 2 2 2 1 1
15 14 14 13 12 11 11 10 9 8 7 6 6 5 5 5 5 6 7 7 5 6 10 11 11 8 6 5 4 2 4 4 4 4 4 4 3 2 2 2 2 1 1 1
15 15 14 14 13 12 12 11 10 9 8 8 7 6 5 4 4 5 7 6 5 7 10 10 7 6 6 8 7 4 4 5 5 5 5 4 4 3 3 3 3 2 2 1
14 14 15 14 13 13 12 12 11 10 10 9 9 7 6 6 6 6 6 5 6 7 8 7 7 8 11 12 6 5 5 5 5 5 5 5 5 4 4 3 3 2 2 2
11 13 14 14 14 14 13 12 12 11 11 11 10 9 8 6 5 5 5 4 5 8 8 7 10 13 15 9 5 5 6 6 6 5 5 5 5 5 5 4 3 3 4 3
8 10 12 13 13 14 14 13 12 11 11 11 10 10 9 7 6 6 6 6 7 9 8 8 10 12 12 6 5 5 6 6 6 5 5 5 5 5 5 4 4 4 4 5
5 8 10 12 13 12 13 13 12 12 11 10 10 10 9 7 7 6 6 6 7 8 8 8 9 10 8 5 4 4 5 5 5 5 5 5 6 6 6 5 5 5 5 5
1 4 6 9 10 9 10 10 10 10 10 10 9 9 8 7 8 8 7 8 9 8 8 7 7 7 6 6 5 4 5 5 5 6 6 5 6 6 6 6 7 6 5 5
3 2 3 5 7 9 9 9 10 11 10 10 10 9 9 8 8 8 9 8 7 7 6 6 6 6 6 6 5 5 5 5 6 6 6 6 6 6 6 7 7 7 6 6
Wind_Direction
113 106 20 33 26 29 37 26 24 22 21 358 353 359 9 13 14 19 24 26 27 29 28 27 30 37 43 45 40 41 54 71 85 110 117 106 94 74 59 58 62 57 58 99
138 178 28 48 32 26 26 21 32 45 31 338 341 0 14 16 14 21 27 30 32 33 33 30 30 36 44 47 49 56 65 73 81 90 91 87 76 64 53 44 38 36 43 69
132 153 183 65 29 20 27 21 10 16 333 327 346 7 16 16 20 29 34 37 38 37 37 34 34 36 42 43 50 55 58 59 61 62 62 60 62 58 51 47 44 43 47 63
170 190 127 96 122 285 290 17 348 326 327 338 350 22 46 30 21 23 25 30 32 32 36 38 40 41 41 41 46 50 51 51 52 55 57 56 55 52 48 48 51 54 56 65
218 132 129 163 192 213 202 98 7 342 351 358 349 82 53 23 10 8 8 14 22 24 30 39 41 40 49 50 50 49 48 48 49 53 53 50 48 46 44 47 53 58 57 56
243 238 166 138 141 166 240 155 118 359 5 5 7 38 23 359 354 358 359 5 8 13 27 39 39 41 51 55 54 51 47 48 48 48 51 51 49 46 47 50 51 58 59 50
238 253 127 130 143 179 215 106 109 14 3 1 7 356 336 342 357 3 360 354 352 0 21 21 18 31 46 47 48 45 41 40 40 41 43 39 36 33 29 32 36 42 56 50
218 228 173 151 168 201 55 93 94 8 355 347 344 344 348 354 1 6 6 360 351 349 0 7 5 11 36 41 44 50 50 46 43 39 32 28 28 30 29 27 36 42 54 57
236 326 108 180 202 211 204 203 41 355 346 339 343 352 353 355 359 1 2 359 351 342 335 342 356 353 5 21 23 37 44 47 40 40 39 30 28 36 39 39 43 49 52 47
248 235 209 203 215 215 209 231 311 327 326 328 341 349 353 355 356 356 355 353 347 340 331 332 339 337 339 349 351 8 28 31 30 25 37 51 48 47 51 50 47 44 36 23
238 214 196 210 212 205 196 209 243 283 298 322 336 347 351 351 355 352 349 346 342 337 329 325 329 336 345 343 329 339 1 10 12 19 21 44 67 59 64 65 37 19 16 5
220 197 193 196 194 192 191 198 206 221 286 331 338 345 349 351 351 347 345 343 342 345 343 340 339 344 353 342 312 300 312 345 5 24 29 29 61 121 115 70 22 6 0 352
175 179 187 149 174 181 190 198 205 224 268 314 336 344 346 347 347 346 348 350 349 349 351 353 353 358 1 345 316 283 273 195 54 32 36 35 34 51 107 154 188 248 34 33
197 175 186 182 175 181 188 195 203 220 247 289 321 335 342 345 348 351 353 351 345 344 352 357 357 359 354 342 321 274 214 143 128 75 49 46 45 48 56 70 95 95 81 57
201 204 201 177 174 178 185 191 201 217 234 267 300 322 337 344 346 347 348 348 344 346 351 351 351 352 348 337 320 267 189 163 144 103 83 69 60 60 73 78 75 59 58 67
193 201 203 189 184 184 189 198 210 220 228 253 289 317 330 334 334 337 344 349 345 344 344 342 344 344 341 333 317 208 166 114 136 144 134 105 83 70 79 86 86 72 52 37
183 194 199 200 197 194 197 204 214 222 226 242 282 311 317 324 330 335 340 342 335 330 333 341 341 338 341 340 294 169 158 152 171 185 156 111 86 72 84 101 98 84 69 46
201 201 200 201 200 197 199 203 209 215 223 237 271 288 300 316 325 327 329 330 332 336 350 349 346 336 349 5 32 161 161 161 177 175 165 160 109 96 99 118 122 104 96 99
207 206 203 204 204 200 198 199 204 210 214 220 245 266 289 304 315 319 323 324 331 341 347 345 333 332 355 14 357 188 178 169 172 173 178 163 202 165 165 174 163 136 93 65
206 207 204 201 199 202 202 201 203 205 207 213 231 249 269 291 307 314 317 312 317 337 333 334 329 338 343 356 328 227 198 189 182 180 187 196 209 209 211 207 202 207 233 317
203 201 201 200 199 202 207 206 203 205 202 207 225 242 259 276 292 304 309 304 316 339 329 316 323 336 339 334 299 249 218 205 198 196 199 213 225 219 217 216 209 218 221 211
205 200 200 200 200 202 204 204 203 204 202 207 220 231 243 258 274 289 289 278 300 321 319 322 332 339 329 312 281 244 223 213 211 209 210 222 232 232 225 216 206 197 194 189
208 205 203 202 203 204 200 200 203 203 204 209 218 225 233 245 262 277 293 298 307 322 314 318 332 325 317 301 272 235 219 214 213 215 218 222 229 234 230 214 200 198 196 194
212 207 207 206 206 206 202 202 203 205 209 214 221 226 231 236 243 247 260 275 286 301 301 313 319 322 313 297 276 236 217 212 212 217 220 219 221 223 223 218 207 203 204 199
223 215 211 208 209 210 211 205 202 204 210 216 223 223 227 234 244 256 260 273 286 293 299 308 312 315 313 311 284 245 225 218 218 217 215 221 221 219 217 212 206 205 208 201
290 234 226 218 217 214 210 206 205 206 210 216 222 224 224 226 235 243 254 262 270 279 288 300 314 315 323 316 293 257 240 224 218 224 228 227 224 218 214 208 198 198 204 205
2 302 251 242 233 225 219 212 213 214 213 217 224 224 223 224 226 230 240 251 261 268 279 290 302 314 320 316 302 279 255 243 235 227 225 225 225 219 213 206 197 193 195 196
Height
1573 1575 1574 1575 1575 1571 1570 1572 1572 1572 1567 1562 1556 1552 1547 1542 1538 1535 1531 1529 1526 1523 1520 1516 1514 1512 1512 1511 1510 1509 1508 1508 1509 1510 1511 1511 1512 1512 1511 1511 1510 1509 1508 1508
1571 1573 1573 1574 1576 1574 1574 1574 1573 1569 1567 1563 1560 1556 1552 1548 1544 1540 1537 1534 1531 1528 1525 1522 1519 1518 1516 1515 1514 1513 1512 1511 1510 1511 1511 1511 1511 1511 1510 1509 1508 1507 1507 1506
1564 1569 1570 1571 1576 1578 1578 1577 1575 1572 1570 1565 1560 1557 1555 1552 1548 1545 1542 1539 1536 1533 1530 1527 1525 1523 1521 1520 1518 1516 1515 1513 1512 1512 1511 1511 1510 1509 1508 1507 1506 1506 1505 1505
1562 1565 1565 1573 1575 1577 1577 1577 1575 1572 1569 1565 1561 1559 1556 1554 1551 1548 1545 1543 1540 1537 1534 1532 1530 1528 1525 1523 1521 1520 1518 1516 1515 1514 1513 1512 1511 1509 1509 1508 1507 1506 1506 1506
1561 1567 1566 1571 1572 1573 1572 1572 1572 1570 1567 1563 1560 1555 1556 1555 1553 1551 1548 1546 1543 1540 1538 1536 1533 1532 1531 1529 1527 1524 1522 1520 1519 1518 1516 1515 1514 1513 1512 1511 1510 1509 1508 1507
1562 1560 1563 1565 1570 1573 1574 1567 1570 1569 1566 1564 1560 1554 1558 1557 1554 1552 1550 1548 1546 1544 1542 1540 1537 1536 1535 1533 1530 1528 1525 1523 1522 1520 1519 1518 1517 1516 1514 1513 1511 1510 1509 1508
1561 1559 1558 1566 1570 1573 1570 1567 1569 1569 1568 1566 1564 1564 1562 1559 1556 1554 1552 1550 1548 1547 1545 1543 1541 1540 1538 1536 1532 1529 1527 1525 1523 1522 1521 1520 1518 1517 1514 1513 1511 1511 1510 1509
1559 1558 1563 1566 1568 1567 1566 1568 1569 1569 1569 1567 1566 1564 1562 1559 1557 1555 1553 1552 1551 1549 1548 1546 1544 1543 1541 1538 1535 1532 1529 1528 1526 1525 1524 1522 1520 1518 1515 1513 1512 1512 1512 1512
1558 1558 1561 1564 1564 1566 1567 1568 1569 1569 1568 1567 1566 1564 1561 1559 1557 1556 1554 1553 1552 1551 1550 1548 1546 1544 1543 1540 1536 1534 1532 1530 1528 1527 1526 1524 1522 1520 1518 1516 1515 1515 1515 1515
1558 1556 1560 1561 1562 1564 1566 1567 1568 1567 1567 1566 1565 1563 1561 1559 1558 1556 1555 1554 1552 1551 1550 1549 1547 1545 1543 1540 1538 1536 1534 1532 1531 1530 1528 1526 1524 1522 1520 1519 1518 1518 1517 1515
1553 1553 1557 1558 1559 1562 1564 1566 1566 1566 1566 1565 1564 1563 1561 1560 1558 1556 1555 1553 1552 1551 1549 1548 1546 1545 1542 1540 1538 1537 1535 1534 1532 1530 1529 1527 1525 1523 1522 1521 1520 1519 1518 1516
1546 1548 1550 1552 1555 1559 1562 1564 1565 1566 1566 1565 1565 1563 1562 1560 1558 1556 1554 1553 1551 1549 1548 1546 1545 1543 1541 1540 1538 1536 1536 1535 1533 1532 1530 1528 1526 1524 1523 1522 1521 1520 1519 1517
1546 1547 1549 1551 1553 1556 1560 1562 1564 1565 1565 1565 1564 1563 1561 1559 1557 1555 1554 1552 1550 1548 1547 1545 1543 1542 1540 1538 1537 1535 1535 1534 1533 1532 1531 1529 1527 1525 1524 1523 1522 1522 1520 1518
1544 1546 1549 1550 1553 1555 1558 1560 1562 1563 1563 1564 1563 1562 1561 1559 1557 1555 1553 1551 1549 1547 1546 1544 1543 1541 1539 1537 1536 1534 1534 1533 1533 1532 1531 1529 1527 1525 1524 1523 1523 1522 1521 1518
1542 1545 1547 1549 1552 1554 1556 1558 1560 1561 1562 1562 1562 1561 1560 1558 1556 1554 1552 1550 1548 1547 1546 1544 1542 1540 1537 1536 1535 1534 1533 1533 1533 1532 1531 1530 1528 1527 1525 1524 1523 1523 1522 1519
1539 1542 1544 1547 1549 1552 1554 1556 1558 1560 1561 1561 1560 1560 1558 1557 1555 1553 1551 1549 1547 1546 1545 1543 1541 1539 1536 1535 1534 1533 1533 1532 1532 1532 1532 1531 1530 1529 1528 1526 1525 1524 1523 1521
1535 1537 1540 1543 1546 1548 1551 1553 1556 1557 1558 1559 1558 1557 1557 1556 1554 1553 1551 1548 1546 1545 1543 1542 1540 1538 1536 1535 1534 1533 1533 1532 1532 1532 1533 1532 1532 1531 1530 1528 1527 1526 1525 1522
1530 1533 1536 1539 1543 1545 1548 1551 1553 1554 1555 1555 1555 1555 1555 1554 1553 1551 1549 1547 1546 1544 1542 1541 1539 1538 1536 1535 1534 1534 1533 1533 1532 1532 1532 1532 1532 1532 1531 1530 1529 1528 1526 1524
1527 1531 1534 1537 1540 1543 1546 1548 1550 1551 1552 1552 1553 1553 1553 1552 1551 1549 1547 1546 1544 1543 1541 1539 1538 1537 1536 1535 1534 1534 1533 1533 1532 1532 1532 1532 1532 1532 1531 1531 1530 1529 1527 1526
1522 1526 1530 1533 1536 1539 1542 1545 1547 1548 1549 1549 1550 1550 1550 1550 1548 1547 1545 1544 1543 1541 1539 1537 1536 1535 1535 1534 1533 1533 1533 1532 1532 1532 1532 1532 1532 1532 1532 1531 1530 1529 1528 1527
1518 1522 1526 1529 1532 1536 1538 1541 1543 1544 1545 1546 1547 1547 1547 1547 1546 1545 1543 1542 1541 1539 1538 1536 1534 1533 1532 1532 1531 1532 1532 1532 1531 1531 1531 1532 1532 1532 1531 1531 1530 1529 1528 1527
1514 1517 1521 1525 1529 1532 1534 1537 1539 1540 1541 1542 1543 1544 1544 1544 1544 1542 1541 1540 1538 1537 1535 1534 1532 1530 1529 1528 1529 1529 1530 1530 1530 1530 1530 1530 1530 1531 1531 1530 1529 1528 1527 1526
1510 1514 1517 1521 1524 1528 1530 1532 1534 1536 1537 1538 1540 1541 1541 1542 1541 1540 1539 1538 1536 1534 1533 1531 1529 1527 1525 1525 1525 1526 1527 1528 1528 1528 1528 1528 1528 1529 1529 1529 1528 1527 1526 1525
1507 1510 1513 1517 1520 1523 1525 1527 1530 1531 1533 1534 1535 1537 1538 1538 1538 1537 1536 1535 1534 1532 1530 1528 1526 1523 1522 1521 1522 1522 1524 1524 1525 1526 1526 1525 1525 1526 1526 1526 1526 1525 1525 1524
1504 1506 1509 1512 1514 1517 1520 1523 1525 1527 1528 1529 1531 1532 1533 1534 1534 1534 1533 1532 1531 1529 1528 1526 1523 1521 1519 1518 1518 1519 1520 1521 1522 1523 1522 1522 1523 1523 1523 1524 1524 1524 1523 1522
1502 1503 1505 1507 1510 1513 1516 1518 1520 1522 1524 1525 1526 1527 1528 1529 1530 1530 1529 1528 1527 1526 1525 1523 1521 1519 1517 1515 1515 1516 1517 1518 1518 1519 1519 1519 1519 1520 1520 1521 1521 1521 1521 1521
1501 1501 1502 1503 1505 1507 1509 1511 1514 1516 1518 1520 1521 1523 1524 1524 1525 1525 1525 1524 1524 1523 1521 1520 1519 1517 1515 1513 1512 1513 1513 1514 1515 1516 1516 1516 1516 1516 1516 1517 1518 1518 1518 1518